Location: Bacharowice
(49.9333°N, 19.5833°E)
Time: 09:22:15
(UTC+00:00)

Cosmos 923 Rocket - Pass Details

Date: 11 May 2021
Orbit: 758 x 786 km, 74.0° (Epoch: 21 June)

Event Time Altitude Azimuth Distance (km) Brightness Sun altitude
Rises 21:00:26 0° 332° (NNW) 3,246 9.0 -18.6°
Reaches altitude 10° 21:02:51 10° 328° (NNW) 2,319 7.7 -18.8°
Maximum altitude 21:07:57 52° 253° (WSW) 954 4.5 -19.1°
Enters shadow 21:10:13 31° 194° (SSW) 1,344 4.8 -19.2°
